Wind_Speed
4 3 4 4 0 1 4 5 6 7 6 8 8 7 11 9 8 10 9 8 7 7 5 10 11 17 25 27 26 27 29 32 34 35 37 38 34 37 43 41 40 39 39 35
6 5 5 6 5 5 6 7 8 8 3 1 6 10 6 16 13 11 10 8 7 5 4 5 8 16 20 24 23 28 29 32 36 36 35 34 40 41 40 41 39 39 40 41
4 4 4 3 2 4 5 6 5 7 5 6 7 8 6 6 6 8 7 7 6 7 5 3 8 14 18 22 22 27 30 32 33 34 36 36 35 38 36 34 34 33 40 37
5 3 3 2 5 6 6 2 2 5 4 4 2 8 4 9 10 11 9 8 7 6 5 3 5 9 13 18 24 30 30 32 31 33 33 33 34 36 37 39 39 43 38 39
9 4 5 4 5 4 5 2 5 5 9 2 6 5 5 13 12 12 8 7 7 7 6 1 6 11 12 17 26 27 28 28 30 30 31 33 34 35 38 37 38 39 35 35
7 3 5 6 2 3 2 3 5 4 2 4 9 11 4 7 15 14 7 8 7 6 4 2 9 11 13 21 25 30 29 30 31 31 33 31 32 37 36 37 35 33 34 33
5 5 2 2 2 2 2 3 4 5 2 7 2 2 14 6 8 18 13 9 8 6 3 5 8 10 19 23 25 28 28 33 33 32 32 30 33 34 35 36 32 31 33 34
3 6 5 4 4 6 6 6 4 7 4 6 6 7 5 2 11 13 10 9 7 6 5 7 6 18 21 17 26 28 30 33 34 33 34 33 33 29 36 33 32 35 36 36
2 5 2 4 1 3 3 4 1 2 2 2 4 5 3 3 8 8 9 8 7 7 2 6 11 15 18 19 28 30 31 33 34 35 35 36 35 36 35 32 39 33 31 35
4 7 0 2 2 2 2 3 2 1 4 7 6 7 8 12 14 8 8 8 6 2 3 4 8 15 12 21 26 28 29 32 34 36 36 36 40 37 34 36 34 32 38 37
5 5 2 4 7 9 2 3 4 2 4 5 2 7 4 18 16 12 8 8 7 5 6 6 7 14 13 20 24 27 29 32 34 34 37 37 40 38 36 34 33 34 33 34
7 5 5 11 4 2 3 9 10 5 6 4 7 18 7 13 13 10 9 8 7 5 2 4 10 9 14 20 23 25 29 32 33 34 36 36 38 39 36 34 34 35 35 32
8 4 2 7 4 4 6 5 6 3 1 19 9 10 1 9 10 8 10 8 7 6 5 6 3 7 15 18 23 27 31 34 34 36 36 37 38 37 37 36 35 35 34 34
8 5 9 18 20 3 8 8 10 14 10 23 26 35 12 7 12 9 8 7 8 6 2 3 5 8 14 19 23 27 32 33 38 37 38 37 38 38 39 36 37 35 35 34
7 9 7 18 15 6 21 15 16 19 27 18 38 25 26 19 17 10 9 6 3 1 3 4 6 9 17 21 25 30 31 35 36 39 38 37 39 39 39 36 35 36 35 35
4 6 3 16 9 16 27 19 20 28 31 30 33 37 30 18 6 7 7 5 2 1 3 5 8 12 17 22 27 31 34 36 39 40 38 39 40 39 39 38 35 36 36 34
10 6 4 15 1 5 15 23 29 22 25 24 24 35 23 15 8 8 7 4 4 4 3 5 8 11 17 22 26 30 34 37 36 37 39 39 40 41 39 38 36 35 34 33
11 8 5 3 5 8 8 2 8 21 26 20 23 23 12 6 6 7 5 6 5 1 3 6 9 14 19 23 27 31 32 33 35 36 37 39 41 40 40 37 36 36 34 32
12 9 4 4 7 11 22 8 8 9 22 22 25 21 6 8 6 3 5 4 5 3 1 4 11 16 21 24 28 31 34 33 34 34 38 40 41 41 39 37 38 38 35 34
5 8 8 5 5 9 1 3 7 7 16 14 17 8 10 8 3 4 7 5 5 4 5 8 13 18 20 24 27 28 31 33 32 38 41 42 42 39 39 38 37 37 36 35
6 6 16 12 8 10 10 7 6 5 7 4 9 9 11 5 4 6 8 5 5 5 6 10 12 13 18 22 24 26 29 28 35 38 40 40 39 37 37 38 36 36 36 35
13 11 6 7 6 16 14 9 10 5 3 6 6 8 8 8 9 8 7 6 4 3 4 6 9 13 17 19 22 24 26 32 35 37 39 39 38 36 36 36 36 34 32 32
6 11 9 13 11 3 23 5 11 5 5 5 7 6 8 8 7 8 6 5 3 2 2 4 7 10 12 16 19 23 29 33 36 36 36 36 38 35 34 35 33 31 29 25
7 13 5 7 18 17 17 6 13 7 6 6 6 7 8 7 8 6 6 5 4 3 0 4 7 10 13 15 18 19 26 31 34 33 34 34 35 37 34 32 31 30 27 26
9 19 17 11 7 6 11 14 12 9 8 7 6 6 10 9 8 8 7 6 6 4 2 3 5 8 12 16 18 23 29 33 32 30 30 31 31 33 33 30 31 31 28 30
10 11 12 11 9 16 10 19 15 14 14 14 12 7 6 9 11 7 7 8 7 4 2 3 5 8 12 16 20 28 32 33 31 28 28 31 31 32 31 32 33 32 31 29
Wind_Direction
289 65 261 210 137 256 262 260 251 262 247 202 227 238 190 179 159 165 168 160 143 109 96 73 43 14 3 1 356 350 348 345 343 336 330 323 320 318 312 307 298 293 291 295
12 250 195 172 207 226 232 261 270 286 167 314 259 249 238 184 181 169 165 163 142 119 87 77 32 6 360 353 351 349 347 345 341 336 331 322 315 311 309 309 305 303 296 294
173 224 173 181 206 232 247 228 252 256 332 297 280 274 188 191 155 171 168 142 137 135 113 57 16 354 351 347 349 346 344 339 338 333 328 324 319 315 315 314 317 311 307 298
236 214 167 197 244 176 261 163 225 282 354 242 119 288 213 179 182 183 177 159 146 128 107 65 341 326 339 336 346 345 342 333 329 330 327 323 319 313 313 310 307 304 311 303
248 196 212 229 229 151 241 52 249 249 246 359 233 251 255 167 204 195 171 164 148 144 123 41 310 313 320 337 343 345 330 323 325 327 328 321 314 308 307 306 307 304 302 307
243 9 173 206 139 187 13 309 262 215 169 256 232 203 228 182 216 175 167 161 150 137 128 280 286 292 312 340 348 332 325 322 324 326 325 315 310 307 305 306 306 308 304 302
336 218 95 124 133 21 78 50 320 339 332 238 182 284 246 212 188 171 159 160 156 143 187 249 263 286 351 343 334 327 321 323 322 320 321 315 311 305 307 304 303 304 306 303
227 300 177 174 193 186 192 165 169 263 240 275 324 254 240 147 122 127 141 148 150 168 208 240 290 353 332 328 330 324 325 318 317 318 316 316 312 305 308 299 302 298 295 293
249 255 95 41 10 143 179 182 162 287 104 5 240 278 340 131 139 142 147 152 170 179 239 359 332 324 321 325 329 320 316 316 317 315 315 317 314 309 304 300 302 294 292 296
199 290 96 165 58 323 218 171 85 72 288 273 266 260 232 190 197 181 168 162 167 139 348 279 273 305 311 326 319 314 313 317 314 314 315 313 314 310 304 305 300 300 297 293
149 172 202 128 199 187 143 227 229 188 174 235 281 255 234 192 189 183 181 165 176 204 226 247 296 311 316 320 317 316 316 317 315 315 314 311 313 311 306 304 303 301 299 302
204 169 232 224 209 229 179 202 189 209 222 240 256 272 174 185 181 162 166 173 183 198 248 283 292 301 324 322 319 316 317 317 316 313 312 310 313 312 308 303 304 301 298 295
182 211 341 298 6 342 226 205 213 266 276 240 247 262 157 144 151 166 167 186 186 200 230 250 279 334 324 319 317 319 320 319 317 315 314 313 316 312 310 305 304 302 297 296
151 203 202 254 269 128 238 188 204 217 245 253 241 259 234 200 177 179 182 182 190 193 243 9 346 315 322 321 320 319 320 320 318 317 317 315 317 313 310 307 304 299 296 295
166 241 195 256 273 282 266 253 227 221 236 234 258 248 259 251 246 228 176 157 120 27 24 357 325 324 323 324 323 322 322 319 319 316 316 316 316 314 311 309 307 302 298 294
177 251 159 273 237 245 260 250 246 241 245 244 252 267 261 274 152 152 154 154 115 80 23 347 325 319 325 329 323 322 321 320 321 316 316 317 317 316 314 311 308 304 298 292
168 186 159 261 108 323 274 238 229 241 240 230 243 247 275 257 189 166 154 129 101 49 341 320 321 320 323 325 323 319 318 318 317 315 317 319 321 316 316 314 309 304 298 294
176 186 173 267 90 255 257 166 215 231 247 235 252 257 243 149 151 138 148 145 144 101 1 325 315 325 326 324 323 319 319 318 317 317 319 321 321 316 314 313 308 303 297 290
212 178 196 213 208 314 296 245 174 182 275 210 232 245 229 122 106 111 136 131 127 101 123 314 330 327 325 330 328 323 320 321 321 320 323 321 321 314 312 310 306 301 294 286
162 219 204 154 212 225 173 146 121 107 278 201 212 203 144 143 161 204 171 127 126 116 39 358 340 333 328 326 326 325 322 323 322 325 322 320 318 312 311 310 315 308 302 293
168 191 214 222 235 272 227 170 150 145 260 145 151 151 154 171 170 138 134 125 94 56 20 349 339 329 319 323 329 325 321 321 322 320 319 317 316 314 316 317 318 315 310 301
176 169 193 201 210 258 153 140 193 178 135 149 139 151 149 130 132 134 136 127 106 64 4 351 339 328 327 332 332 323 321 324 324 323 320 318 320 324 324 324 326 326 323 317
197 188 176 195 210 189 175 187 192 158 153 175 145 151 145 142 160 156 142 131 138 113 352 342 324 318 331 334 336 324 324 328 326 325 323 324 327 330 330 333 333 334 334 337
236 197 219 154 228 216 197 195 182 172 164 158 152 145 148 160 152 142 143 158 157 153 92 346 338 336 333 334 335 331 331 333 329 327 328 331 334 334 338 341 341 339 339 339
195 166 201 242 240 159 208 204 183 172 146 138 130 155 166 147 159 156 160 158 157 150 77 359 345 334 333 339 341 345 346 343 334 332 332 337 339 339 340 346 344 343 342 340
186 189 190 210 173 201 191 200 177 167 170 168 154 147 158 163 160 153 153 153 150 138 73 353 340 339 340 348 351 356 0 354 341 333 338 342 342 343 346 346 344 352 351 350
Height
803 814 821 814 813 812 815 818 822 810 799 804 806 804 812 814 817 821 820 819 820 820 820 821 822 822 822 819 818 816 812 807 803 798 792 785 779 773 766 761 755 750 746 742
817 818 807 807 807 811 816 820 820 807 798 802 803 803 794 804 807 811 814 817 818 819 819 819 820 820 819 818 816 812 807 803 800 797 792 788 778 769 762 754 747 743 738 733
815 805 803 805 809 813 815 817 815 812 810 805 802 797 799 801 803 808 810 813 816 816 816 817 817 816 816 814 811 807 802 799 798 795 787 779 773 764 756 749 742 737 732 726
813 803 805 807 811 811 819 808 809 813 818 822 800 797 807 801 804 805 807 811 811 812 813 815 815 815 814 811 806 801 798 797 795 791 785 779 771 760 754 746 738 731 725 718
808 803 805 807 805 803 809 811 815 815 818 816 809 822 783 793 800 800 809 813 811 810 810 812 813 812 810 805 800 795 795 794 791 787 783 775 768 761 751 743 734 725 717 712
806 805 805 804 805 806 809 810 810 812 821 831 797 799 787 797 775 792 804 807 807 806 807 809 809 809 806 799 792 794 793 789 785 780 776 772 765 756 747 738 729 720 712 706
810 807 806 805 809 811 812 816 828 832 838 809 798 803 763 770 770 777 796 801 802 803 806 807 807 804 791 790 792 791 788 781 778 774 770 765 758 750 743 733 725 716 707 700
821 813 807 806 805 808 816 816 835 833 834 804 808 791 764 773 775 783 789 795 799 801 804 804 798 789 792 791 790 786 780 776 772 766 761 756 750 742 736 727 719 712 704 695
811 805 809 812 808 809 811 818 813 825 893 868 807 780 778 782 784 787 790 794 797 797 795 790 792 791 790 789 785 781 776 771 765 760 753 746 740 734 727 720 712 704 697 689
803 811 809 816 812 814 812 813 821 830 843 856 810 780 756 785 781 784 787 789 788 787 788 791 791 787 785 784 782 778 773 766 760 754 748 740 733 726 719 712 703 696 690 682
803 812 811 816 818 813 828 821 817 816 823 817 832 754 753 759 765 777 781 782 783 786 787 787 783 781 781 780 777 772 766 760 753 748 741 733 726 718 711 704 696 688 682 676
803 812 823 806 799 800 799 802 801 803 805 812 799 743 745 751 758 769 775 778 780 781 779 780 779 778 777 775 771 766 760 755 750 743 736 727 719 710 703 695 688 681 675 669
802 813 833 795 815 805 803 803 797 795 796 786 797 759 749 754 762 766 772 774 774 774 775 774 773 770 771 769 766 760 754 748 742 735 727 717 711 702 695 687 679 673 666 661
790 800 781 768 754 784 792 798 793 790 790 767 755 733 747 755 758 764 768 769 771 770 769 768 768 768 768 765 760 755 747 743 736 726 718 708 701 694 686 679 671 664 657 651
792 798 796 772 777 790 777 776 779 780 760 770 723 740 720 726 734 743 759 761 762 763 764 764 765 764 763 761 756 750 743 739 732 721 711 702 694 687 678 670 663 655 649 642
797 790 793 777 785 786 771 771 767 757 743 744 732 721 704 719 736 748 753 756 756 759 761 762 762 763 760 757 753 747 740 732 726 716 705 696 687 679 672 663 655 646 639 633
795 792 798 766 782 795 769 747 746 731 724 727 736 697 705 717 731 742 748 749 753 757 761 762 762 760 758 755 751 744 736 728 720 712 700 690 682 673 665 656 648 640 631 624
774 781 790 781 791 773 698 723 727 727 712 720 710 704 709 724 733 740 743 748 753 756 758 760 761 758 756 753 748 741 734 726 717 706 696 688 679 669 659 650 642 633 625 617
749 765 778 775 774 741 700 703 727 728 681 705 704 702 711 727 735 743 744 745 749 752 757 759 758 757 753 749 745 740 730 723 714 704 694 684 675 664 654 645 635 624 616 606
760 758 759 777 770 760 707 720 720 722 710 693 696 705 720 726 739 736 742 743 749 753 754 755 755 753 751 748 743 735 729 721 711 701 691 681 672 661 649 638 628 616 607 596
759 762 753 752 751 733 705 716 715 730 686 690 696 706 715 720 721 729 736 742 747 750 752 752 751 750 749 745 741 732 728 720 712 702 691 679 669 657 645 633 623 611 598 586
728 744 749 754 758 732 692 713 701 682 687 690 695 701 707 714 724 729 734 741 744 748 750 752 751 749 746 743 737 732 725 717 708 699 686 673 663 652 640 629 617 606 595 580
709 691 713 714 686 675 675 673 675 679 684 690 693 697 701 711 719 726 732 739 743 747 749 749 750 748 744 742 736 730 723 714 705 695 682 671 659 650 639 627 614 604 594 583
695 685 687 697 651 661 667 668 670 676 680 686 689 695 701 708 715 725 731 737 743 745 747 747 748 745 741 739 734 728 720 712 702 691 681 670 659 647 638 627 618 607 597 587
654 663 657 658 653 658 662 660 666 672 677 684 690 694 698 705 713 719 727 734 739 743 744 744 742 742 739 734 728 722 716 708 700 692 682 671 661 650 638 630 621 611 604 595
634 631 635 624 626 631 639 646 656 666 672 678 686 695 698 701 708 716 724 731 734 737 739 740 739 738 735 729 724 719 713 708 701 693 683 673 663 654 643 630 618 614 606 596